EW1761 Weather Reports


time (UTC)temp
C
wind
direction
speed
KPH
gust
KPH
rain 1hr
cm
rain 24hr
cm
rain mn
cm
humidity
%
barometer
mb
20260906052024 21 320 0.0 0.0 0.00 0.71 0.00 97 1013.5
20260906051005 21 320 0.0 0.0 0.00 0.71 0.00 97 1014.2
20260906050042 21 320 0.0 0.0 0.00 0.71 0.00 97 1013.8
20260906045502 21 320 0.0 0.0 0.00 0.71 0.00 97 1013.8
20260906044504 21 320 0.0 0.0 0.00 0.71 0.00 97 1013.8
20260906044003 21 320 0.0 0.0 0.00 0.71 0.00 97 1013.8
20260906043007 21 320 0.0 0.0 0.00 0.71 0.00 97 1013.8
20260906042504 21 320 0.0 0.0 0.00 0.71 0.00 97 1013.8
20260906042003 21 320 0.0 0.0 0.00 0.71 0.00 97 1014.2
20260906041005 22 320 0.0 0.0 0.00 0.71 0.00 97 1014.2
20260906040504 22 320 0.0 0.0 0.00 0.71 0.00 97 1014.2
20260906035505 22 320 0.0 0.0 0.00 0.71 0.71 97 1014.2
20260906034526 22 320 0.0 1.6 0.00 0.71 0.71 97 1014.2
20260906033508 22 320 0.0 0.0 0.00 0.71 0.71 97 1014.5
20260906032526 22 320 0.0 0.0 0.00 0.71 0.71 97 1014.2
20260906032005 22 320 0.0 0.0 0.00 0.71 0.71 96 1014.2
20260906031026 22 320 0.0 0.0 0.00 0.71 0.71 96 1014.5
20260906030505 22 320 0.0 1.6 0.00 0.71 0.71 96 1014.5
20260906025524 22 320 0.0 0.0 0.00 0.71 0.71 96 1014.5
20260906024505 22 320 0.0 0.0 0.00 0.71 0.71 97 1014.2
20260906023508 22 320 1.6 1.6 0.00 0.71 0.71 97 1014.2
20260906022527 22 320 0.0 0.0 0.00 0.71 0.71 96 1014.2
20260906021504 22 320 0.0 0.0 0.00 0.71 0.71 96 1013.8
20260906020525 22 320 0.0 0.0 0.00 0.71 0.71 96 1013.5
20260906015507 22 320 0.0 0.0 0.00 0.71 0.71 96 1013.5
20260906015005 22 320 0.0 0.0 0.00 0.71 0.71 96 1013.8
20260906014503 22 320 0.0 0.0 0.00 0.71 0.71 96 1013.8
20260906013548 22 320 0.0 0.0 0.00 0.71 0.71 96 1013.5
20260906012511 22 320 0.0 0.0 0.00 0.71 0.71 96 1013.5
20260906012007 22 320 0.0 0.0 0.00 0.71 0.71 96 1013.5
20260906011505 22 320 0.0 0.0 0.00 0.71 0.71 96 1013.5
20260906010508 23 320 1.6 1.6 0.00 0.71 0.71 96 1013.5
20260906010003 23 320 0.0 1.6 0.00 0.71 0.71 96 1013.5
20260906005003 23 320 0.0 0.0 0.00 0.71 0.71 96 1013.5
20260906004007 23 320 0.0 1.6 0.00 0.71 0.71 95 1013.5
20260906003507 23 320 0.0 0.0 0.00 0.71 0.71 95 1013.1
20260906003006 23 320 0.0 0.0 0.00 0.71 0.71 95 1013.1
20260906002026 23 320 0.0 0.0 0.00 0.71 0.71 95 1013.1
20260906001011 23 320 0.0 0.0 0.00 0.71 0.71 95 1012.8
20260906000007 23 320 0.0 0.0 0.00 0.71 0.71 94 1013.1
20260905235013 23 320 1.6 1.6 0.00 0.71 0.71 94 1012.8
20260905234008 24 320 3.2 3.2 0.00 0.71 0.71 94 1012.8
20260905233006 24 320 0.0 0.0 0.00 0.71 0.71 93 1012.8
20260905232006 24 320 0.0 1.6 0.00 0.71 0.71 93 1012.4
20260905231008 25 320 1.6 3.2 0.00 0.71 0.71 91 1012.8
20260905230005 25 320 0.0 0.0 0.00 0.71 0.71 89 1012.4
20260905225505 26 320 0.0 1.6 0.00 0.71 0.71 86 1012.4
20260905224006 26 296 0.0 1.6 0.00 0.71 0.71 84 1012.4
20260905223506 26 296 1.6 3.2 0.00 0.71 0.71 84 1012.4
20260905222507 26 278 0.0 1.6 0.00 0.71 0.71 84 1012.1
20260905222004 26 277 0.0 0.0 0.00 0.71 0.71 82 1012.4
20260905221027 25 277 0.0 1.6 0.00 0.71 0.71 92 1012.8
20260905220008 25 278 0.0 1.6 0.00 0.71 0.71 89 1012.4
20260905215506 25 274 0.0 1.6 0.00 0.71 0.71 83 1012.4
20260905214507 25 295 3.2 4.8 0.00 0.71 0.71 86 1012.4
20260905213508 24 275 1.6 1.6 0.00 0.71 0.71 88 1012.8
20260905212508 24 279 1.6 3.2 0.00 0.71 0.71 87 1013.1
20260905212006 24 290 1.6 1.6 0.00 0.71 0.71 88 1013.1
20260905211008 23 218 1.6 3.2 0.00 0.71 0.71 87 1013.1
20260905210506 23 182 1.6 3.2 0.00 0.71 0.71 89 1013.1
20260905210005 23 242 3.2 3.2 0.00 0.71 0.71 91 1013.1
20260905205012 23 277 3.2 8.0 0.00 0.71 0.71 94 1013.8
20260905204506 22 287 3.2 4.8 0.00 0.71 0.71 94 1013.8
20260905204005 22 300 1.6 1.6 0.00 0.71 0.71 94 1013.5
20260905203009 22 347 1.6 3.2 0.00 0.71 0.71 94 1014.2
20260905202024 22 99 3.2 4.8 0.00 0.71 0.71 95 1014.2
20260905201033 22 132 3.2 4.8 0.05 0.71 0.71 94 1013.8
20260905200506 22 33 0.0 1.6 0.38 0.71 0.71 95 1013.8
20260905195523 22 31 0.0 1.6 0.71 0.71 0.71 94 1013.5
20260905194508 22 31 1.6 3.2 0.71 0.71 0.71 95 1013.5
20260905194007 21 32 0.0 0.0 0.71 0.71 0.71 94 1013.5
20260905193507 22 32 1.6 1.6 0.71 0.71 0.71 94 1013.8
20260905192509 22 31 3.2 3.2 0.71 0.71 0.71 92 1014.2
20260905192007 22 19 3.2 4.8 0.71 0.71 0.71 92 1014.2
20260905191007 22 137 4.8 4.8 0.64 0.64 0.64 86 1014.2
20260905190503 25 268 9.7 16.1 0.30 0.30 0.30 77 1015.6
20260905185529 28 4 19.3 24.1 0.00 0.00 0.00 60 1014.5
20260905185006 30 356 11.3 20.9 0.00 0.00 0.00 56 1014.2
20260905184010 33 345 8.0 9.7 0.00 0.00 0.00 50 1013.5
20260905183507 33 24 1.6 3.2 0.00 0.00 0.00 53 1013.1
20260905183007 33 24 3.2 3.2 0.00 0.00 0.00 58 1013.1
20260905182006 34 29 1.6 3.2 0.00 0.00 0.00 58 1012.4
20260905181005 33 248 3.2 3.2 0.00 0.00 0.00 54 1013.1
20260905180503 33 248 0.0 0.0 0.00 0.00 0.00 60 1013.1
20260905175528 35 282 3.2 4.8 0.00 0.00 0.00 52 1013.8
20260905174512 35 17 1.6 1.6 0.00 0.00 0.00 54 1013.8
20260905174007 34 288 4.8 6.4 0.00 0.00 0.00 53 1014.2
20260905173007 35 228 1.6 1.6 0.00 0.00 0.00 55 1014.2
20260905172005 34 355 1.6 3.2 0.00 0.00 0.00 58 1014.2
20260905171009 34 35 3.2 4.8 0.00 0.00 0.00 56 1014.5
20260905170505 34 39 1.6 3.2 0.00 0.00 0.00 57 1014.5
20260905165510 34 339 3.2 4.8 0.00 0.00 0.00 57 1014.5
20260905164510 34 33 1.6 3.2 0.00 0.00 0.00 56 1014.9
20260905163511 33 270 1.6 3.2 0.00 0.00 0.00 60 1014.9
20260905162508 33 353 4.8 6.4 0.00 0.00 0.00 58 1014.9
20260905161511 33 13 1.6 3.2 0.00 0.00 0.00 61 1014.9
20260905161006 33 285 4.8 6.4 0.00 0.00 0.00 61 1015.2
20260905160012 32 331 1.6 3.2 0.00 0.00 0.00 63 1015.2
20260905155028 32 346 0.0 1.6 0.00 0.00 0.00 64 1015.2
20260905154504 32 344 0.0 1.6 0.00 0.00 0.00 67 1015.6
20260905154005 31 345 1.6 3.2 0.00 0.00 0.00 69 1015.2
20260905153026 31 283 0.0 1.6 0.00 0.00 0.00 71 1015.2
20260905152005 31 245 3.2 6.4 0.00 0.00 0.00 74 1015.2
20260905151504 31 255 1.6 1.6 0.00 0.00 0.00 73 1015.2
20260905150509 30 247 3.2 3.2 0.00 0.00 0.00 72 1015.6
20260905150008 30 329 0.0 1.6 0.00 0.00 0.00 72 1015.6
20260905145025 30 279 4.8 4.8 0.00 0.00 0.00 77 1015.6
20260905144008 28 262 4.8 6.4 0.00 0.00 0.00 79 1015.6
20260905143506 28 187 0.0 0.0 0.00 0.00 0.00 81 1015.6
20260905142507 28 187 0.0 0.0 0.00 0.00 0.00 83 1015.6
20260905141525 28 298 0.0 0.0 0.00 0.00 0.00 83 1015.6
20260905140527 27 262 0.0 0.0 0.00 0.00 0.00 85 1015.6
20260905140004 27 266 0.0 0.0 0.00 0.00 0.00 85 1015.6
20260905135007 26 260 0.0 0.0 0.00 0.00 0.00 87 1015.6
20260905134030 26 264 0.0 0.0 0.00 0.00 0.00 88 1015.6
20260905133007 26 264 0.0 0.0 0.00 0.00 0.00 88 1015.6
20260905132024 26 264 0.0 0.0 0.00 0.00 0.00 89 1015.6
20260905131029 25 241 0.0 0.0 0.00 0.00 0.00 91 1015.9
20260905130503 25 239 0.0 0.0 0.00 0.00 0.00 92 1015.9
20260905125507 25 239 0.0 0.0 0.00 0.00 0.00 93 1015.9
20260905124527 24 239 0.0 0.0 0.00 0.00 0.00 93 1015.9
20260905123507 23 239 0.0 0.0 0.00 0.00 0.00 94 1015.9
20260905123004 23 239 0.0 0.0 0.00 0.00 0.00 94 1015.6
20260905122023 23 239 0.0 0.0 0.00 0.00 0.00 95 1015.6
20260905121005 23 239 0.0 0.0 0.00 0.00 0.00 95 1015.6
20260905120502 23 239 0.0 0.0 0.00 0.00 0.00 95 1015.6
20260905115505 22 239 0.0 0.0 0.00 0.00 0.00 95 1015.2
20260905114522 22 239 0.0 0.0 0.00 0.00 0.00 95 1015.2
20260905113510 22 239 0.0 0.0 0.00 0.00 0.00 95 1015.6
20260905113007 22 239 0.0 0.0 0.00 0.00 0.00 96 1015.6
20260905112506 22 239 0.0 0.0 0.00 0.00 0.00 96 1015.2
20260905112004 22 239 0.0 0.0 0.00 0.00 0.00 96 1014.9
20260905111028 22 239 0.0 0.0 0.00 0.00 0.00 96 1014.9
20260905110503 22 239 0.0 0.0 0.00 0.00 0.00 96 1014.9
20260905105506 22 239 0.0 0.0 0.00 0.00 0.00 96 1014.5
20260905104509 22 239 0.0 0.0 0.00 0.00 0.00 95 1014.5
20260905103547 22 239 0.0 0.0 0.00 0.00 0.00 96 1014.2
20260905102504 22 239 0.0 0.0 0.00 0.00 0.00 95 1014.2
20260905102004 22 239 0.0 0.0 0.00 0.00 0.00 95 1014.2
20260905101006 22 239 0.0 0.0 0.00 0.00 0.00 95 1014.2
20260905100004 22 239 0.0 0.0 0.00 0.00 0.00 95 1014.2
20260905095011 22 239 0.0 0.0 0.00 0.00 0.00 95 1014.2
20260905094010 22 239 0.0 0.0 0.00 0.00 0.00 95 1014.2
20260905093006 22 239 0.0 0.0 0.00 0.00 0.00 95 1014.2
20260905092505 22 239 0.0 0.0 0.00 0.00 0.00 94 1014.5
20260905092003 22 239 0.0 0.0 0.00 0.00 0.00 94 1014.2
20260905091008 23 239 0.0 0.0 0.00 0.00 0.00 94 1014.2
20260905090504 23 239 0.0 0.0 0.00 0.00 0.00 94 1014.2
20260905090003 23 239 0.0 0.0 0.00 0.00 0.00 94 1014.2
20260905085008 23 239 0.0 0.0 0.00 0.00 0.00 93 1014.5
20260905084507 23 239 0.0 0.0 0.00 0.00 0.00 93 1014.5
20260905083528 23 239 0.0 0.0 0.00 0.00 0.00 93 1014.5
20260905083006 23 239 0.0 0.0 0.00 0.00 0.00 93 1014.5
20260905082005 23 239 0.0 0.0 0.00 0.00 0.00 93 1014.5
20260905081030 23 239 0.0 0.0 0.00 0.00 0.00 92 1014.9
20260905080010 23 239 0.0 0.0 0.00 0.00 0.00 92 1014.9
20260905075008 23 239 0.0 0.0 0.00 0.00 0.00 92 1014.9
20260905074046 23 239 0.0 0.0 0.00 0.00 0.00 92 1014.9
20260905073503 23 239 0.0 0.0 0.00 0.00 0.00 92 1014.9
20260905073003 23 239 0.0 0.0 0.00 0.00 0.00 91 1014.9
20260905072024 24 239 0.0 0.0 0.00 0.00 0.00 90 1014.9
20260905071007 24 239 0.0 0.0 0.00 0.00 0.00 90 1015.2
20260905070005 24 239 0.0 0.0 0.00 0.00 0.00 90 1015.2
20260905065006 24 239 0.0 0.0 0.00 0.00 0.00 89 1015.2
20260905064011 24 239 0.0 0.0 0.00 0.00 0.00 90 1015.2
20260905063504 24 239 0.0 0.0 0.00 0.00 0.00 90 1015.6
20260905063003 25 239 0.0 0.0 0.00 0.00 0.00 89 1015.6
20260905062006 24 239 0.0 0.0 0.00 0.00 0.00 89 1015.6
20260905061006 24 239 0.0 0.0 0.00 0.00 0.00 90 1015.9
20260905060049 25 239 0.0 0.0 0.00 0.00 0.00 90 1015.9
20260905055006 24 239 0.0 0.0 0.00 0.00 0.00 90 1015.9
20260905054003 24 239 0.0 0.0 0.00 0.00 0.00 90 1015.9
20260905053006 25 239 0.0 0.0 0.00 0.00 0.00 89 1015.9